QPF
0.00 0.00 0.00 0.00 0.00 0.00 0.00 0.00 0.00 0.00 0.00 0.00 0.00 0.00 0.00 0.00 0.00 0.00 0.00 0.00 0.00 0.00 0.00 0.00 0.00 0.00 0.00 0.00 0.00 0.00 0.00 0.00 0.00 0.00 0.00 0.00 0.00 0.00 0.00 0.00 0.00 0.00 0.00 0.00 0.00
0.00 0.00 0.00 0.00 0.00 0.00 0.00 0.00 0.00 0.00 0.00 0.00 0.00 0.00 0.00 0.00 0.00 0.00 0.00 0.00 0.00 0.00 0.00 0.00 0.00 0.00 0.00 0.00 0.00 0.00 0.00 0.00 0.00 0.00 0.00 0.00 0.00 0.00 0.00 0.00 0.00 0.00 0.00 0.00 0.00
0.00 0.00 0.00 0.00 0.00 0.00 0.00 0.00 0.00 0.00 0.00 0.00 0.00 0.00 0.00 0.00 0.00 0.00 0.00 0.00 0.00 0.00 0.00 0.00 0.00 0.00 0.00 0.00 0.00 0.00 0.00 0.00 0.00 0.00 0.00 0.00 0.00 0.00 0.00 0.00 0.00 0.00 0.00 0.00 0.00
0.00 0.00 0.00 0.00 0.00 0.00 0.00 0.00 0.00 0.00 0.00 0.00 0.00 0.00 0.00 0.00 0.00 0.00 0.00 0.00 0.00 0.00 0.00 0.00 0.00 0.00 0.00 0.00 0.00 0.00 0.00 0.00 0.00 0.00 0.00 0.00 0.00 0.00 0.00 0.00 0.00 0.00 0.00 0.00 0.00
0.00 0.00 0.00 0.00 0.00 0.00 0.00 0.00 0.00 0.00 0.00 0.00 0.00 0.00 0.00 0.00 0.00 0.00 0.00 0.00 0.00 0.00 0.00 0.00 0.00 0.00 0.00 0.00 0.00 0.00 0.00 0.00 0.00 0.00 0.00 0.00 0.00 0.00 0.00 0.00 0.00 0.00 0.00 0.00 0.00
0.00 0.00 0.00 0.00 0.00 0.00 0.00 0.00 0.00 0.00 0.00 0.00 0.00 0.00 0.00 0.00 0.00 0.00 0.00 0.00 0.00 0.00 0.00 0.00 0.00 0.00 0.00 0.00 0.00 0.00 0.00 0.00 0.00 0.00 0.00 0.00 0.00 0.00 0.00 0.00 0.00 0.00 0.00 0.00 0.00
0.00 0.00 0.00 0.00 0.00 0.00 0.00 0.00 0.00 0.00 0.00 0.00 0.00 0.00 0.00 0.00 0.00 0.00 0.00 0.00 0.00 0.00 0.00 0.00 0.00 0.00 0.00 0.00 0.00 0.00 0.00 0.00 0.00 0.00 0.00 0.00 0.00 0.00 0.00 0.00 0.00 0.00 0.00 0.00 0.00
0.00 0.00 0.00 0.00 0.00 0.00 0.00 0.00 0.00 0.00 0.00 0.00 0.00 0.00 0.00 0.00 0.00 0.00 0.00 0.00 0.00 0.00 0.00 0.00 0.00 0.00 0.00 0.00 0.00 0.00 0.00 0.00 0.00 0.00 0.00 0.00 0.00 0.00 0.00 0.00 0.00 0.00 0.00 0.00 0.00
0.00 0.00 0.00 0.00 0.00 0.00 0.00 0.00 0.00 0.00 0.00 0.00 0.00 0.00 0.00 0.00 0.00 0.00 0.00 0.00 0.00 0.00 0.00 0.00 0.00 0.00 0.00 0.00 0.00 0.00 0.00 0.00 0.00 0.00 0.00 0.00 0.00 0.00 0.00 0.00 0.00 0.00 0.00 0.00 0.00
0.00 0.00 0.00 0.00 0.00 0.00 0.00 0.00 0.00 0.00 0.00 0.00 0.00 0.00 0.00 0.00 0.00 0.00 0.00 0.00 0.00 0.00 0.00 0.00 0.00 0.00 0.00 0.00 0.00 0.00 0.00 0.00 0.00 0.00 0.00 0.00 0.00 0.00 0.00 0.00 0.00 0.00 0.00 0.00 0.00
0.00 0.00 0.00 0.00 0.00 0.00 0.00 0.00 0.00 0.00 0.00 0.00 0.00 0.00 0.00 0.00 0.00 0.00 0.00 0.00 0.00 0.00 0.00 0.00 0.00 0.00 0.00 0.00 0.00 0.00 0.00 0.00 0.00 0.00 0.00 0.00 0.00 0.00 0.00 0.00 0.00 0.00 0.00 0.00 0.00
0.00 0.00 0.00 0.00 0.00 0.00 0.00 0.00 0.00 0.00 0.00 0.00 0.00 0.00 0.00 0.00 0.00 0.00 0.00 0.00 0.00 0.00 0.00 0.00 0.00 0.00 0.00 0.00 0.00 0.00 0.00 0.00 0.00 0.00 0.00 0.00 0.00 0.00 0.00 0.00 0.00 0.00 0.00 0.00 0.00
0.00 0.00 0.00 0.00 0.00 0.00 0.00 0.00 0.00 0.00 0.00 0.00 0.00 0.00 0.00 0.00 0.00 0.00 0.00 0.00 0.00 0.00 0.00 0.00 0.00 0.00 0.00 0.00 0.00 0.00 0.00 0.00 0.00 0.00 0.00 0.00 0.00 0.00 0.00 0.00 0.00 0.00 0.00 0.00 0.00
0.00 0.00 0.00 0.00 0.00 0.00 0.00 0.00 0.00 0.00 0.00 0.00 0.00 0.00 0.00 0.00 0.00 0.00 0.00 0.00 0.00 0.00 0.00 0.00 0.00 0.00 0.00 0.00 0.00 0.00 0.00 0.00 0.00 0.00 0.00 0.00 0.00 0.00 0.00 0.00 0.00 0.00 0.00 0.00 0.00
0.00 0.00 0.00 0.00 0.00 0.00 0.00 0.00 0.00 0.00 0.00 0.00 0.00 0.00 0.00 0.00 0.00 0.00 0.00 0.00 0.00 0.00 0.00 0.00 0.00 0.00 0.00 0.00 0.00 0.00 0.00 0.00 0.00 0.00 0.00 0.00 0.00 0.00 0.00 0.00 0.00 0.00 0.00 0.00 0.00
0.00 0.00 0.00 0.00 0.00 0.00 0.00 0.00 0.00 0.00 0.00 0.00 0.00 0.00 0.00 0.00 0.00 0.00 0.00 0.00 0.00 0.00 0.00 0.00 0.00 0.00 0.00 0.00 0.00 0.00 0.00 0.00 0.00 0.00 0.00 0.00 0.00 0.00 0.00 0.00 0.00 0.00 0.00 0.00 0.00
0.00 0.00 0.00 0.00 0.00 0.00 0.00 0.00 0.00 0.00 0.00 0.00 0.00 0.00 0.00 0.00 0.00 0.00 0.00 0.00 0.00 0.00 0.00 0.00 0.00 0.00 0.00 0.00 0.00 0.00 0.00 0.00 0.00 0.00 0.00 0.00 0.00 0.00 0.00 0.00 0.00 0.00 0.00 0.00 0.00
0.00 0.00 0.00 0.00 0.00 0.00 0.00 0.00 0.00 0.00 0.00 0.00 0.00 0.00 0.00 0.00 0.00 0.00 0.00 0.00 0.00 0.00 0.00 0.00 0.00 0.00 0.00 0.00 0.00 0.00 0.00 0.00 0.00 0.00 0.00 0.00 0.00 0.00 0.00 0.00 0.00 0.00 0.00 0.00 0.00
0.00 0.00 0.00 0.00 0.00 0.00 0.00 0.00 0.00 0.00 0.00 0.00 0.00 0.00 0.00 0.00 0.00 0.00 0.00 0.00 0.00 0.00 0.00 0.00 0.00 0.00 0.00 0.00 0.00 0.00 0.00 0.00 0.00 0.00 0.00 0.00 0.00 0.00 0.00 0.00 0.00 0.00 0.00 0.00 0.00
0.00 0.00 0.00 0.00 0.00 0.00 0.00 0.00 0.00 0.00 0.00 0.00 0.00 0.00 0.00 0.00 0.00 0.00 0.00 0.00 0.00 0.00 0.00 0.00 0.00 0.00 0.00 0.00 0.00 0.00 0.00 0.00 0.00 0.00 0.00 0.00 0.00 0.00 0.00 0.00 0.00 0.00 0.00 0.00 0.00
0.00 0.00 0.00 0.00 0.00 0.00 0.00 0.00 0.00 0.00 0.00 0.00 0.00 0.00 0.00 0.00 0.00 0.00 0.00 0.00 0.00 0.00 0.00 0.00 0.00 0.00 0.00 0.00 0.00 0.00 0.00 0.00 0.00 0.00 0.00 0.00 0.00 0.00 0.00 0.00 0.00 0.00 0.00 0.00 0.00
0.00 0.00 0.00 0.00 0.00 0.00 0.00 0.00 0.00 0.00 0.00 0.00 0.00 0.00 0.00 0.00 0.00 0.00 0.00 0.00 0.00 0.00 0.00 0.00 0.00 0.00 0.00 0.00 0.00 0.00 0.00 0.00 0.00 0.00 0.00 0.00 0.00 0.00 0.00 0.00 0.00 0.00 0.00 0.00 0.00
0.00 0.00 0.00 0.00 0.00 0.00 0.00 0.00 0.00 0.00 0.00 0.00 0.00 0.00 0.00 0.00 0.00 0.00 0.00 0.00 0.00 0.00 0.00 0.00 0.00 0.00 0.00 0.00 0.00 0.00 0.00 0.00 0.00 0.00 0.00 0.00 0.00 0.00 0.00 0.00 0.00 0.00 0.00 0.00 0.00
0.00 0.00 0.00 0.00 0.00 0.00 0.00 0.00 0.00 0.00 0.00 0.00 0.00 0.00 0.00 0.00 0.00 0.00 0.00 0.00 0.00 0.00 0.00 0.00 0.00 0.00 0.00 0.00 0.00 0.00 0.00 0.00 0.00 0.00 0.00 0.00 0.00 0.00 0.00 0.00 0.00 0.00 0.00 0.00 0.00
0.00 0.00 0.00 0.00 0.00 0.00 0.00 0.00 0.00 0.00 0.00 0.00 0.00 0.00 0.00 0.00 0.00 0.00 0.00 0.00 0.00 0.00 0.00 0.00 0.00 0.00 0.00 0.00 0.00 0.00 0.00 0.00 0.00 0.00 0.00 0.00 0.00 0.00 0.00 0.00 0.00 0.00 0.00 0.00 0.00
0.00 0.00 0.00 0.00 0.00 0.00 0.00 0.00 0.00 0.00 0.00 0.00 0.00 0.00 0.00 0.00 0.00 0.00 0.00 0.00 0.00 0.00 0.00 0.00 0.00 0.00 0.00 0.00 0.00 0.00 0.00 0.00 0.00 0.00 0.00 0.00 0.00 0.00 0.00 0.00 0.00 0.00 0.00 0.00 0.00
0.00 0.00 0.00 0.00 0.00 0.00 0.00 0.00 0.00 0.00 0.00 0.00 0.00 0.00 0.00 0.00 0.00 0.00 0.00 0.00 0.00 0.00 0.00 0.00 0.00 0.00 0.00 0.00 0.00 0.00 0.00 0.00 0.00 0.00 0.00 0.00 0.00 0.00 0.00 0.00 0.00 0.00 0.00 0.00 0.00
MSLP
1019.31 1019.03 1018.74 1018.53 1018.27 1017.99 1017.74 1017.49 1017.19 1016.88 1016.61 1016.28 1015.95 1015.64 1015.25 1014.88 1013.87 1013.26 1011.27 1010.34 1010.24 1010.45 1010.52 1009.62 1009.04 1008.56 1008.18 1007.50 1007.58 1007.69 1006.28 1006.23 1006.45 1006.45 1006.48 1006.64 1006.61 1006.88 1007.10 1007.12 1007.82 1008.37 1008.55 1009.15 1011.15
1019.25 1018.94 1018.62 1018.38 1018.17 1017.90 1017.62 1017.36 1017.10 1016.88 1016.54 1016.23 1015.92 1015.51 1015.14 1014.83 1013.20 1011.29 1009.96 1010.30 1010.57 1010.48 1009.74 1008.92 1008.22 1008.00 1007.16 1007.19 1007.24 1006.84 1006.35 1006.61 1006.70 1006.54 1006.43 1006.58 1006.60 1006.60 1006.96 1007.06 1007.63 1008.65 1009.53 1010.18 1011.27
1019.23 1018.92 1018.63 1018.31 1018.03 1017.78 1017.51 1017.21 1016.94 1016.73 1016.53 1016.15 1015.76 1015.38 1015.01 1014.47 1012.16 1009.40 1010.13 1010.29 1010.50 1010.49 1009.45 1008.91 1008.41 1007.82 1007.03 1006.93 1006.99 1007.03 1006.70 1006.70 1006.36 1006.32 1006.32 1006.31 1006.46 1006.51 1006.44 1006.30 1006.82 1007.47 1009.30 1010.42 1011.18
1019.15 1018.80 1018.48 1018.19 1017.85 1017.59 1017.33 1017.07 1016.79 1016.55 1016.38 1016.03 1015.61 1015.23 1014.84 1013.59 1010.39 1009.58 1010.18 1010.38 1010.55 1009.86 1009.28 1008.68 1008.10 1007.36 1006.82 1006.51 1006.96 1006.81 1006.76 1006.64 1006.42 1006.26 1006.18 1006.06 1006.28 1006.19 1006.33 1006.39 1006.93 1007.50 1008.95 1010.13 1010.77
1019.06 1018.69 1018.31 1017.99 1017.67 1017.34 1017.09 1016.85 1016.69 1016.42 1016.21 1015.92 1015.48 1015.12 1014.24 1011.93 1009.52 1009.46 1009.87 1010.05 1010.27 1009.81 1008.92 1008.37 1007.80 1007.46 1006.85 1006.86 1006.75 1006.63 1006.58 1006.40 1006.05 1005.72 1005.82 1005.86 1005.89 1006.01 1006.04 1006.35 1007.19 1007.85 1008.97 1009.74 1010.36
1018.96 1018.60 1018.21 1017.83 1017.49 1017.19 1016.88 1016.69 1016.51 1016.30 1016.03 1015.72 1015.38 1015.11 1013.37 1010.59 1009.59 1009.56 1009.39 1009.69 1009.34 1009.20 1008.70 1008.46 1007.84 1007.89 1007.30 1007.03 1006.89 1006.80 1006.52 1006.08 1005.79 1005.52 1005.59 1005.57 1005.27 1005.63 1005.49 1006.21 1007.11 1007.91 1008.59 1009.32 1009.93
1018.82 1018.44 1018.05 1017.68 1017.36 1017.05 1016.73 1016.45 1016.24 1016.00 1015.70 1015.49 1015.25 1014.39 1012.14 1009.64 1009.66 1009.60 1009.46 1009.17 1009.18 1008.87 1008.49 1008.58 1008.41 1008.03 1007.60 1006.90 1007.16 1006.78 1006.14 1005.47 1005.80 1005.63 1005.36 1005.48 1004.61 1004.95 1005.40 1006.15 1006.84 1007.52 1008.26 1008.96 1009.64
1018.67 1018.26 1017.86 1017.46 1017.09 1016.84 1016.56 1016.22 1015.88 1015.58 1015.35 1015.24 1015.08 1013.74 1010.26 1009.62 1009.73 1009.62 1009.35 1009.33 1009.40 1009.21 1008.79 1008.84 1008.73 1008.06 1007.72 1007.41 1006.69 1006.17 1005.68 1005.03 1005.81 1005.71 1005.76 1005.35 1004.13 1004.38 1005.26 1005.88 1006.29 1007.06 1007.89 1008.70 1009.31
1018.51 1018.05 1017.64 1017.25 1016.88 1016.55 1016.29 1015.88 1015.37 1015.06 1015.03 1015.01 1014.28 1012.51 1009.09 1010.01 1009.31 1008.89 1008.93 1008.60 1009.01 1009.15 1009.20 1009.21 1008.69 1007.81 1007.65 1006.92 1005.89 1005.57 1004.98 1005.06 1005.32 1005.93 1005.70 1005.26 1004.34 1004.48 1005.23 1005.49 1005.59 1006.37 1007.17 1008.07 1008.85
1018.24 1017.86 1017.44 1017.03 1016.68 1016.32 1015.95 1015.50 1015.07 1014.89 1014.60 1014.03 1013.13 1011.80 1009.08 1008.33 1008.65 1008.84 1008.95 1008.79 1008.63 1008.78 1008.90 1008.70 1008.07 1007.47 1006.77 1006.33 1005.17 1005.00 1005.58 1005.49 1005.39 1005.67 1005.52 1004.70 1003.86 1003.67 1004.04 1004.87 1004.98 1005.59 1006.26 1007.11 1007.87
1018.07 1017.57 1017.19 1016.82 1016.51 1016.28 1015.21 1014.74 1014.35 1013.26 1012.49 1010.42 1009.80 1009.27 1008.49 1008.51 1008.72 1008.42 1008.55 1008.42 1008.39 1008.27 1007.76 1007.90 1007.41 1006.29 1005.82 1005.61 1006.19 1006.54 1006.19 1005.76 1005.45 1005.47 1005.49 1004.37 1003.51 1002.81 1003.00 1003.87 1004.25 1004.65 1005.28 1005.98 1006.73
1017.94 1017.40 1016.95 1016.58 1016.29 1016.12 1015.66 1012.70 1011.33 1011.24 1009.76 1009.52 1009.42 1009.14 1008.85 1008.63 1007.83 1008.16 1008.55 1008.00 1007.83 1007.29 1007.43 1007.63 1006.59 1005.87 1006.25 1006.49 1006.61 1006.41 1006.14 1005.62 1005.46 1005.65 1005.27 1003.95 1002.98 1002.21 1002.01 1002.39 1002.83 1003.72 1004.29 1004.99 1005.71
1017.68 1017.17 1016.74 1016.41 1016.07 1015.64 1013.48 1011.72 1011.31 1010.93 1009.32 1008.72 1008.54 1008.12 1007.93 1008.26 1007.10 1007.15 1007.86 1007.47 1007.25 1006.95 1007.00 1006.35 1005.81 1006.40 1006.45 1006.46 1006.43 1006.09 1005.84 1005.65 1005.67 1005.37 1004.38 1003.95 1002.00 1001.26 1001.10 1001.47 1001.93 1002.46 1003.29 1003.94 1004.56
1017.40 1016.88 1016.55 1016.27 1016.21 1013.36 1012.07 1011.40 1011.39 1011.21 1008.43 1007.94 1007.57 1007.55 1007.92 1007.43 1006.92 1006.89 1007.25 1007.14 1007.06 1006.58 1006.60 1006.33 1005.94 1006.61 1006.48 1006.12 1006.08 1005.47 1005.53 1005.92 1005.74 1005.12 1003.76 1003.54 1001.72 1000.55 1000.49 1000.60 1001.05 1001.48 1002.14 1002.87 1003.69
1016.98 1016.57 1016.30 1016.36 1014.13 1012.48 1011.54 1011.39 1011.19 1010.77 1006.96 1007.10 1007.03 1007.59 1007.21 1006.66 1006.35 1006.95 1007.02 1006.90 1006.38 1006.29 1006.89 1005.53 1005.97 1006.15 1005.90 1005.67 1005.80 1005.61 1005.80 1005.80 1005.39 1004.63 1003.88 1002.34 1001.73 999.93 1000.14 999.87 1000.11 1000.46 1000.90 1001.79 1002.78
1016.49 1016.10 1015.85 1015.31 1014.19 1012.00 1011.78 1011.47 1011.01 1008.89 1006.10 1006.13 1006.48 1006.53 1006.52 1006.16 1005.94 1006.67 1006.98 1007.04 1006.60 1006.40 1006.33 1005.75 1005.75 1005.99 1005.37 1005.38 1005.62 1005.77 1005.69 1004.97 1004.72 1003.97 1002.79 1001.38 1001.51 999.19 999.06 999.79 999.87 999.97 1000.35 1000.89 1001.76
1015.99 1015.49 1015.23 1013.60 1011.76 1011.97 1011.68 1010.58 1008.47 1006.16 1006.18 1005.69 1005.30 1005.61 1005.25 1005.23 1005.42 1005.64 1006.00 1006.12 1005.64 1005.60 1004.86 1004.67 1004.59 1005.05 1005.31 1005.23 1005.48 1005.52 1004.75 1003.34 1002.66 1002.06 1001.17 1001.70 1001.26 999.82 999.28 999.34 999.35 999.44 999.72 1000.36 1001.14
1015.40 1015.03 1014.20 1012.94 1012.34 1012.08 1011.12 1009.03 1006.92 1006.24 1005.38 1005.59 1005.27 1005.15 1004.74 1004.68 1004.83 1005.07 1005.14 1004.96 1005.31 1005.09 1004.34 1003.64 1003.27 1003.92 1004.30 1004.41 1003.89 1004.18 1003.74 1002.49 1001.59 1000.86 1000.63 1001.63 1000.40 999.05 999.02 999.06 998.94 999.04 999.27 999.93 1000.67
1014.71 1013.33 1012.31 1011.78 1012.07 1011.94 1009.90 1007.51 1006.22 1006.19 1006.10 1005.43 1004.97 1004.45 1004.30 1004.39 1004.50 1004.65 1004.63 1004.21 1004.29 1004.91 1004.51 1003.56 1003.17 1003.85 1004.00 1003.77 1003.96 1003.43 1003.52 1002.65 1001.96 1001.28 1001.27 1000.22 999.92 999.24 998.63 998.63 998.66 998.77 999.26 999.75 1000.22
1014.02 1011.78 1011.30 1011.64 1011.70 1010.89 1008.76 1007.63 1007.07 1007.10 1006.63 1005.90 1004.56 1004.50 1003.60 1003.90 1004.38 1004.34 1004.11 1004.44 1004.35 1004.52 1004.73 1004.10 1003.60 1003.10 1003.36 1003.86 1003.85 1003.42 1003.16 1002.50 1002.09 1001.27 1000.41 999.44 999.61 998.79 998.74 998.74 998.89 999.05 999.21 999.60 1000.21
1013.40 1010.58 1011.12 1011.25 1011.20 1009.37 1007.64 1007.50 1007.71 1007.36 1007.21 1006.38 1005.50 1004.85 1004.40 1004.04 1004.08 1003.95 1003.93 1005.01 1005.22 1005.01 1005.08 1004.44 1004.10 1003.14 1003.32 1002.66 1001.93 1003.11 1002.76 1002.49 1001.76 1001.29 1000.27 999.41 998.44 999.00 999.10 998.94 998.94 999.17 999.75 999.65 1000.16
1012.36 1009.83 1010.76 1010.64 1009.34 1008.81 1007.79 1008.41 1009.14 1007.63 1007.34 1006.83 1006.52 1005.93 1005.40 1005.17 1004.48 1004.33 1004.37 1005.09 1006.09 1005.68 1005.06 1004.88 1003.90 1002.80 1002.14 1001.71 1002.23 1001.87 1001.48 1001.38 1001.14 1000.58 1000.56 1000.13 998.88 998.56 999.08 999.07 999.23 999.28 999.76 1000.08 1000.27
1011.98 1010.64 1010.48 1010.08 1008.39 1008.22 1008.77 1008.50 1008.60 1008.05 1007.88 1007.43 1006.95 1006.96 1006.70 1006.08 1005.79 1005.61 1005.80 1006.66 1006.68 1006.15 1005.72 1005.46 1004.40 1003.05 1001.90 1001.34 1002.34 1002.17 1001.73 1001.69 1001.30 1000.77 1000.09 999.63 998.65 998.48 998.82 998.99 998.92 999.44 999.84 1000.31 1000.50
1012.54 1010.36 1010.12 1009.86 1009.93 1008.91 1008.85 1008.86 1008.63 1009.04 1008.69 1008.50 1008.06 1007.70 1007.18 1006.85 1006.88 1006.56 1006.57 1007.04 1007.26 1007.11 1007.38 1006.82 1004.85 1003.83 1002.86 1001.84 1002.03 1002.54 1002.36 1002.14 1001.82 1000.77 999.93 999.17 998.84 998.69 998.57 998.88 999.02 999.42 1000.25 1000.66 1000.81
1013.12 1012.13 1012.03 1010.13 1010.30 1010.08 1009.87 1009.90 1009.46 1009.24 1009.38 1009.25 1008.83 1008.80 1008.49 1007.81 1007.53 1007.28 1007.58 1007.33 1007.29 1007.75 1007.43 1006.60 1005.44 1004.76 1004.05 1003.77 1003.28 1002.87 1002.57 1002.37 1001.99 1001.40 1000.76 999.75 998.88 998.73 998.84 999.04 999.69 1000.52 1000.91 1001.14 1001.40
1013.70 1013.02 1012.76 1011.90 1011.61 1010.95 1011.20 1010.82 1010.51 1010.46 1010.46 1009.88 1009.84 1009.84 1009.64 1009.31 1009.75 1009.23 1009.13 1008.25 1007.82 1007.79 1007.38 1006.85 1006.31 1005.72 1005.03 1004.59 1003.82 1002.95 1002.68 1002.45 1001.96 1001.56 1001.08 1000.70 1000.08 999.96 1000.42 1001.11 1001.21 1001.55 1001.97 1002.02 1002.28
1015.44 1014.97 1013.82 1012.96 1011.89 1011.31 1011.59 1011.77 1011.76 1011.75 1011.71 1011.55 1011.40 1010.91 1010.52 1010.95 1011.22 1010.67 1010.14 1009.53 1009.08 1008.67 1008.13 1007.88 1007.15 1006.46 1004.96 1005.00 1004.18 1002.94 1002.87 1002.36 1001.71 1001.38 1000.99 1000.82 1000.49 1001.04 1001.31 1002.02 1002.68 1002.87 1003.15 1003.36 1003.37
Thickness
5748 5751 5754 5756 5759 5761 5763 5765 5767 5770 5772 5776 5780 5783 5788 5793 5802 5809 5812 5826 5828 5827 5827 5831 5831 5831 5833 5826 5829 5825 5806 5792 5795 5796 5800 5818 5808 5820 5824 5811 5810 5809 5806 5807 5797
5747 5750 5754 5756 5758 5760 5762 5764 5767 5769 5772 5775 5779 5784 5788 5792 5806 5813 5831 5829 5826 5827 5828 5825 5821 5827 5823 5821 5821 5814 5801 5795 5813 5815 5809 5814 5812 5814 5808 5806 5802 5799 5802 5802 5794
5745 5748 5752 5755 5757 5760 5762 5764 5767 5769 5772 5776 5780 5784 5788 5793 5805 5823 5829 5829 5828 5827 5833 5832 5829 5825 5816 5823 5818 5812 5796 5812 5819 5824 5824 5816 5813 5821 5810 5803 5810 5804 5795 5794 5790
5743 5747 5751 5754 5757 5760 5762 5765 5767 5769 5772 5776 5780 5784 5788 5800 5798 5828 5829 5828 5827 5832 5831 5827 5824 5816 5813 5809 5819 5802 5815 5817 5819 5826 5822 5815 5821 5814 5815 5814 5822 5819 5807 5796 5789
5742 5746 5750 5754 5757 5761 5763 5766 5768 5770 5773 5776 5780 5784 5795 5803 5815 5833 5831 5831 5829 5831 5826 5823 5818 5816 5807 5813 5817 5807 5813 5820 5827 5830 5827 5828 5816 5814 5815 5826 5824 5817 5806 5797 5794
5740 5745 5750 5754 5757 5761 5764 5766 5769 5771 5774 5777 5780 5783 5796 5797 5830 5832 5834 5833 5835 5831 5828 5828 5823 5824 5816 5814 5810 5816 5816 5820 5827 5827 5827 5818 5822 5822 5826 5830 5817 5812 5806 5803 5797
5740 5745 5749 5754 5757 5761 5764 5767 5770 5773 5776 5778 5781 5788 5797 5813 5830 5831 5835 5835 5837 5835 5825 5831 5831 5821 5822 5813 5822 5818 5807 5823 5819 5823 5821 5826 5815 5813 5829 5826 5814 5810 5808 5804 5800
5741 5745 5750 5754 5758 5761 5764 5768 5772 5776 5778 5779 5782 5792 5804 5828 5829 5830 5834 5830 5835 5836 5834 5835 5833 5824 5818 5824 5820 5810 5816 5799 5812 5819 5820 5821 5800 5826 5832 5822 5815 5812 5807 5803 5801
5742 5747 5751 5755 5759 5763 5766 5770 5775 5778 5780 5781 5789 5795 5809 5826 5822 5834 5836 5827 5829 5830 5830 5830 5827 5817 5816 5804 5803 5811 5794 5798 5803 5817 5813 5812 5802 5825 5830 5824 5819 5816 5811 5805 5802
5744 5748 5752 5756 5760 5764 5768 5773 5776 5778 5782 5787 5793 5792 5817 5817 5826 5830 5835 5832 5822 5820 5813 5813 5813 5803 5809 5803 5783 5796 5788 5797 5794 5808 5810 5810 5814 5830 5835 5825 5823 5820 5818 5811 5807
5743 5749 5753 5757 5760 5763 5772 5780 5785 5786 5791 5807 5809 5808 5816 5826 5830 5824 5831 5825 5822 5814 5797 5807 5794 5791 5807 5816 5807 5795 5791 5789 5804 5815 5802 5808 5816 5830 5839 5830 5825 5825 5822 5819 5815
5742 5747 5752 5757 5761 5763 5768 5789 5798 5798 5798 5809 5808 5807 5816 5821 5810 5816 5827 5808 5806 5796 5805 5792 5787 5814 5813 5807 5798 5796 5788 5790 5805 5809 5806 5812 5814 5836 5843 5840 5840 5832 5829 5826 5824
5740 5746 5751 5755 5760 5766 5782 5792 5799 5801 5794 5802 5809 5809 5812 5815 5812 5812 5818 5813 5801 5796 5795 5792 5805 5809 5801 5796 5789 5793 5788 5789 5787 5802 5818 5808 5816 5830 5846 5849 5848 5848 5844 5840 5834
5739 5745 5749 5753 5760 5779 5784 5794 5795 5796 5791 5791 5801 5807 5809 5816 5803 5826 5824 5812 5799 5793 5797 5795 5811 5793 5791 5789 5795 5782 5805 5794 5788 5788 5782 5813 5784 5826 5837 5840 5844 5848 5847 5845 5842
5738 5743 5747 5749 5771 5778 5786 5790 5793 5789 5771 5796 5797 5818 5813 5805 5811 5803 5823 5808 5792 5793 5789 5791 5790 5786 5784 5791 5800 5786 5802 5792 5793 5790 5792 5807 5796 5829 5840 5835 5842 5851 5856 5854 5851
5737 5742 5746 5751 5760 5779 5781 5785 5784 5771 5759 5786 5798 5795 5793 5802 5804 5802 5799 5808 5807 5790 5791 5791 5809 5797 5798 5803 5801 5802 5792 5797 5798 5796 5776 5812 5799 5825 5835 5833 5843 5855 5859 5860 5858
5736 5742 5744 5755 5773 5773 5778 5779 5769 5767 5792 5780 5789 5795 5797 5792 5793 5796 5786 5782 5780 5764 5774 5793 5796 5803 5804 5787 5796 5790 5785 5773 5774 5781 5786 5808 5798 5818 5845 5852 5855 5855 5861 5863 5863
5737 5740 5747 5755 5762 5767 5772 5771 5751 5772 5780 5793 5791 5791 5784 5795 5792 5791 5786 5780 5791 5787 5781 5777 5774 5796 5807 5794 5791 5789 5793 5782 5759 5781 5797 5802 5791 5824 5855 5864 5868 5868 5868 5867 5862
5739 5750 5755 5760 5760 5763 5767 5757 5766 5770 5778 5780 5787 5780 5781 5790 5790 5787 5784 5787 5795 5792 5770 5777 5778 5803 5803 5809 5803 5792 5776 5811 5792 5808 5784 5809 5819 5843 5858 5857 5862 5863 5862 5861 5862
5742 5756 5756 5758 5759 5763 5762 5742 5762 5772 5776 5780 5773 5782 5778 5783 5778 5781 5783 5792 5789 5799 5802 5788 5767 5802 5803 5805 5803 5797 5808 5782 5791 5758 5761 5805 5797 5807 5829 5838 5849 5851 5855 5861 5862
5742 5754 5754 5758 5760 5763 5754 5757 5760 5773 5772 5768 5770 5772 5779 5779 5784 5782 5784 5785 5788 5789 5794 5793 5782 5786 5796 5793 5798 5786 5785 5792 5800 5795 5777 5781 5808 5835 5831 5841 5843 5850 5850 5860 5860
5744 5746 5755 5760 5751 5754 5754 5753 5741 5764 5771 5769 5770 5770 5770 5774 5777 5778 5777 5780 5783 5787 5776 5789 5787 5774 5790 5814 5814 5810 5804 5805 5781 5784 5793 5788 5800 5849 5841 5845 5848 5850 5852 5856 5859
5739 5743 5755 5756 5743 5746 5748 5750 5752 5755 5755 5758 5759 5763 5767 5763 5755 5766 5767 5771 5774 5776 5773 5778 5772 5759 5780 5804 5799 5787 5800 5802 5804 5807 5787 5778 5799 5849 5844 5844 5853 5848 5850 5851 5855
5733 5735 5742 5747 5742 5745 5739 5738 5741 5749 5748 5752 5752 5759 5758 5755 5760 5752 5755 5761 5765 5764 5749 5760 5770 5761 5755 5779 5787 5765 5779 5788 5785 5777 5789 5797 5805 5825 5836 5836 5845 5849 5846 5847 5850
5725 5720 5720 5731 5728 5732 5734 5732 5730 5731 5743 5746 5741 5741 5740 5738 5745 5743 5746 5751 5757 5747 5752 5757 5742 5756 5761 5766 5771 5769 5770 5774 5769 5779 5768 5793 5803 5821 5831 5833 5836 5835 5838 5839 5840
5717 5717 5718 5718 5717 5722 5712 5718 5721 5724 5725 5727 5725 5729 5731 5725 5719 5714 5721 5732 5731 5740 5740 5748 5725 5737 5732 5751 5755 5752 5762 5765 5772 5775 5777 5782 5785 5819 5817 5817 5818 5820 5820 5824 5827
5701 5703 5708 5692 5714 5718 5713 5710 5709 5714 5717 5717 5713 5715 5717 5713 5710 5715 5719 5722 5721 5715 5715 5713 5715 5713 5711 5733 5736 5727 5744 5757 5767 5778 5780 5764 5792 5793 5798 5795 5795 5801 5805 5806 5812